Time,TemperatureF,DewpointF,PressureIn,WindDirection,WindDirectionDegrees,WindSpeedMPH,WindSpeedGustMPH,Humidity,HourlyPrecipIn,Conditions,Clouds,dailyrainin,SoftwareType,DateUTC
2013-05-13 00:01:00,57.0,27.0,-100.00,WNW,300,12.0,15.0,30,0.00,,,0.00,,2013-05-13 00:01:00,
2013-05-13 00:11:00,56.0,25.0,-100.00,NW,305,12.0,16.0,30,0.00,,,0.00,,2013-05-13 00:11:00,
2013-05-13 00:21:00,56.0,25.0,-100.00,WNW,300,11.0,14.0,30,0.00,,,0.00,,2013-05-13 00:21:00,
2013-05-13 00:32:00,56.0,25.0,-100.00,NNW,335,11.0,16.0,30,0.00,,,0.00,,2013-05-13 00:32:00,
2013-05-13 00:41:00,56.0,25.0,-100.00,NNW,330,11.0,14.0,30,0.00,,,0.00,,2013-05-13 00:41:00,
2013-05-13 00:51:00,56.0,25.0,-100.00,NNW,330,9.0,13.0,30,0.00,,,0.00,,2013-05-13 00:51:00,
2013-05-13 01:01:00,55.0,25.0,-100.00,NNW,345,8.0,12.0,30,0.00,,,0.00,,2013-05-13 01:01:00,
2013-05-13 01:11:00,54.0,25.0,-100.00,NNW,345,7.0,12.0,31,0.00,,,0.00,,2013-05-13 01:11:00,
2013-05-13 01:22:00,54.0,25.0,-100.00,NNW,340,7.0,11.0,31,0.00,,,0.00,,2013-05-13 01:22:00,
2013-05-13 01:31:00,53.0,25.0,-100.00,North,350,4.0,9.0,32,0.00,,,0.00,,2013-05-13 01:31:00,
2013-05-13 01:41:00,52.0,25.0,-100.00,North,0,4.0,6.0,33,0.00,,,0.00,,2013-05-13 01:41:00,
2013-05-13 01:52:00,51.0,23.0,-100.00,North,10,5.0,7.0,34,0.00,,,0.00,,2013-05-13 01:52:00,
2013-05-13 02:01:00,49.0,23.0,-100.00,North,5,6.0,6.0,35,0.00,,,0.00,,2013-05-13 02:01:00,
2013-05-13 02:11:00,49.0,23.0,-100.00,NNE,15,6.0,7.0,36,0.00,,,0.00,,2013-05-13 02:11:00,
2013-05-13 02:21:00,47.0,23.0,-100.00,NE,45,5.0,6.0,39,0.00,,,0.00,,2013-05-13 02:21:00,
2013-05-13 02:31:00,47.0,23.0,-100.00,NE,55,4.0,6.0,40,0.00,,,0.00,,2013-05-13 02:31:00,
2013-05-13 02:41:00,47.0,25.0,-100.00,NE,45,4.0,6.0,41,0.00,,,0.00,,2013-05-13 02:41:00,
2013-05-13 02:51:00,46.0,25.0,-100.00,NE,45,4.0,6.0,41,0.00,,,0.00,,2013-05-13 02:51:00,
2013-05-13 03:02:00,47.0,25.0,-100.00,ENE,65,4.0,4.0,42,0.00,,,0.00,,2013-05-13 03:02:00,
2013-05-13 03:11:00,47.0,25.0,-100.00,East,90,4.0,5.0,42,0.00,,,0.00,,2013-05-13 03:11:00,
2013-05-13 03:21:00,47.0,25.0,-100.00,ESE,110,4.0,5.0,42,0.00,,,0.00,,2013-05-13 03:21:00,
2013-05-13 03:32:00,47.0,25.0,-100.00,East,100,6.0,6.0,42,0.00,,,0.00,,2013-05-13 03:32:00,
2013-05-13 03:42:00,47.0,25.0,-100.00,East,95,4.0,6.0,41,0.00,,,0.00,,2013-05-13 03:42:00,
2013-05-13 03:52:00,47.0,25.0,-100.00,East,95,3.0,5.0,41,0.00,,,0.00,,2013-05-13 03:52:00,
2013-05-13 04:02:00,47.0,25.0,-100.00,ESE,115,4.0,4.0,41,0.00,,,0.00,,2013-05-13 04:02:00,
2013-05-13 04:12:00,47.0,25.0,-100.00,ESE,115,4.0,5.0,41,0.00,,,0.00,,2013-05-13 04:12:00,
2013-05-13 04:23:00,46.0,25.0,-100.00,ESE,115,4.0,6.0,42,0.00,,,0.00,,2013-05-13 04:23:00,
2013-05-13 04:32:00,45.0,25.0,-100.00,SE,135,4.0,7.0,43,0.00,,,0.00,,2013-05-13 04:32:00,
2013-05-13 04:41:00,44.0,25.0,-100.00,SE,135,4.0,6.0,44,0.00,,,0.00,,2013-05-13 04:41:00,
2013-05-13 04:52:00,45.0,25.0,-100.00,ESE,115,2.0,4.0,44,0.00,,,0.00,,2013-05-13 04:52:00,
2013-05-13 05:02:00,45.0,25.0,-100.00,ESE,115,5.0,6.0,44,0.00,,,0.00,,2013-05-13 05:02:00,
2013-05-13 05:12:00,45.0,25.0,-100.00,ESE,120,6.0,7.0,44,0.00,,,0.00,,2013-05-13 05:12:00,
2013-05-13 05:21:00,44.0,25.0,-100.00,ESE,120,7.0,7.0,44,0.00,,,0.00,,2013-05-13 05:21:00,
2013-05-13 05:32:00,44.0,25.0,-100.00,SE,125,5.0,7.0,45,0.00,,,0.00,,2013-05-13 05:32:00,
2013-05-13 05:42:00,43.0,25.0,-100.00,SE,145,6.0,6.0,46,0.00,,,0.00,,2013-05-13 05:42:00,
2013-05-13 05:51:00,42.0,25.0,-100.00,SSE,160,4.0,6.0,48,0.00,,,0.00,,2013-05-13 05:51:00,
2013-05-13 06:01:00,41.0,25.0,-100.00,SE,145,6.0,6.0,51,0.00,,,0.00,,2013-05-13 06:01:00,
2013-05-13 06:11:00,42.0,25.0,-100.00,SSE,150,5.0,6.0,52,0.00,,,0.00,,2013-05-13 06:11:00,
2013-05-13 06:21:00,42.0,25.0,-100.00,SE,125,6.0,7.0,51,0.00,,,0.00,,2013-05-13 06:21:00,
2013-05-13 06:31:00,43.0,27.0,-100.00,SE,140,6.0,7.0,50,0.00,,,0.00,,2013-05-13 06:31:00,
2013-05-13 06:42:00,42.0,25.0,-100.00,SE,125,6.0,7.0,51,0.00,,,0.00,,2013-05-13 06:42:00,
2013-05-13 06:52:00,42.0,25.0,-100.00,SSE,150,6.0,7.0,52,0.00,,,0.00,,2013-05-13 06:52:00,
2013-05-13 07:01:00,41.0,25.0,-100.00,SE,125,6.0,7.0,53,0.00,,,0.00,,2013-05-13 07:01:00,
2013-05-13 07:11:00,40.0,25.0,-100.00,ESE,115,6.0,7.0,54,0.00,,,0.00,,2013-05-13 07:11:00,
2013-05-13 07:22:00,41.0,27.0,-100.00,SE,130,6.0,8.0,55,0.00,,,0.00,,2013-05-13 07:22:00,
2013-05-13 07:31:00,41.0,27.0,-100.00,ESE,120,6.0,8.0,55,0.00,,,0.00,,2013-05-13 07:31:00,
2013-05-13 07:41:00,41.0,27.0,-100.00,ESE,120,7.0,9.0,56,0.00,,,0.00,,2013-05-13 07:41:00,
2013-05-13 07:52:00,40.0,27.0,-100.00,ESE,120,7.0,8.0,57,0.00,,,0.00,,2013-05-13 07:52:00,
2013-05-13 08:02:00,40.0,27.0,-100.00,SE,130,5.0,7.0,57,0.00,,,0.00,,2013-05-13 08:02:00,
2013-05-13 08:11:00,41.0,27.0,-100.00,SE,130,6.0,7.0,57,0.00,,,0.00,,2013-05-13 08:11:00,
2013-05-13 08:21:00,41.0,27.0,-100.00,SE,130,7.0,9.0,58,0.00,,,0.00,,2013-05-13 08:21:00,
2013-05-13 08:31:00,40.0,27.0,-100.00,ESE,120,7.0,9.0,58,0.00,,,0.00,,2013-05-13 08:31:00,
2013-05-13 08:42:00,40.0,27.0,-100.00,SE,125,8.0,10.0,58,0.00,,,0.00,,2013-05-13 08:42:00,
2013-05-13 08:51:00,40.0,27.0,-100.00,SE,130,7.0,11.0,59,0.00,,,0.00,,2013-05-13 08:51:00,
2013-05-13 09:01:00,40.0,27.0,-100.00,SE,125,8.0,9.0,59,0.00,,,0.00,,2013-05-13 09:01:00,
2013-05-13 09:11:00,40.0,27.0,-100.00,SE,135,7.0,9.0,60,0.00,,,0.00,,2013-05-13 09:11:00,
2013-05-13 09:21:00,39.0,27.0,-100.00,SE,145,6.0,9.0,61,0.00,,,0.00,,2013-05-13 09:21:00,
2013-05-13 09:33:00,38.0,27.0,-100.00,SE,140,4.0,6.0,63,0.00,,,0.00,,2013-05-13 09:33:00,
2013-05-13 09:42:00,38.0,27.0,-100.00,SSE,160,6.0,6.0,64,0.00,,,0.00,,2013-05-13 09:42:00,
2013-05-13 09:52:00,39.0,28.0,-100.00,SSE,150,6.0,7.0,64,0.00,,,0.00,,2013-05-13 09:52:00,
2013-05-13 10:03:00,40.0,28.0,-100.00,SE,145,5.0,7.0,65,0.00,,,0.00,,2013-05-13 10:03:00,
2013-05-13 10:12:00,40.0,28.0,-100.00,SE,130,5.0,6.0,65,0.00,,,0.00,,2013-05-13 10:12:00,
2013-05-13 10:22:00,39.0,28.0,-100.00,SE,125,6.0,7.0,65,0.00,,,0.00,,2013-05-13 10:22:00,
2013-05-13 10:32:00,39.0,28.0,-100.00,SE,130,6.0,7.0,66,0.00,,,0.00,,2013-05-13 10:32:00,
2013-05-13 10:42:00,39.0,28.0,-100.00,SE,130,6.0,7.0,66,0.00,,,0.00,,2013-05-13 10:42:00,
2013-05-13 10:52:00,39.0,28.0,-100.00,SE,135,6.0,7.0,67,0.00,,,0.00,,2013-05-13 10:52:00,
2013-05-13 11:02:00,39.0,30.0,-100.00,SSE,150,6.0,9.0,67,0.00,,,0.00,,2013-05-13 11:02:00,
2013-05-13 11:12:00,39.0,30.0,-100.00,SE,145,5.0,7.0,68,0.00,,,0.00,,2013-05-13 11:12:00,
2013-05-13 11:21:00,39.0,30.0,-100.00,SSE,155,6.0,7.0,69,0.00,,,0.00,,2013-05-13 11:21:00,
2013-05-13 11:32:00,40.0,30.0,-100.00,SSE,150,7.0,8.0,69,0.00,,,0.00,,2013-05-13 11:32:00,
2013-05-13 11:42:00,41.0,30.0,-100.00,SE,140,7.0,9.0,68,0.00,,,0.00,,2013-05-13 11:42:00,
2013-05-13 11:51:00,41.0,30.0,-100.00,SE,140,7.0,9.0,67,0.00,,,0.00,,2013-05-13 11:51:00,
2013-05-13 12:01:00,41.0,32.0,-100.00,SE,145,7.0,8.0,66,0.00,,,0.00,,2013-05-13 12:01:00,
2013-05-13 12:11:00,41.0,32.0,-100.00,SE,145,7.0,7.0,66,0.00,,,0.00,,2013-05-13 12:11:00,
2013-05-13 12:21:00,42.0,32.0,-100.00,SSE,150,7.0,9.0,66,0.00,,,0.00,,2013-05-13 12:21:00,
2013-05-13 12:32:00,43.0,32.0,-100.00,SE,140,6.0,7.0,65,0.00,,,0.00,,2013-05-13 12:32:00,
2013-05-13 12:42:00,44.0,34.0,-100.00,ESE,120,7.0,9.0,64,0.00,,,0.00,,2013-05-13 12:42:00,
2013-05-13 12:51:00,45.0,34.0,-100.00,SE,140,6.0,9.0,63,0.00,,,0.00,,2013-05-13 12:51:00,
2013-05-13 13:01:00,45.0,34.0,-100.00,SE,140,6.0,8.0,62,0.00,,,0.00,,2013-05-13 13:01:00,
2013-05-13 13:11:00,46.0,34.0,-100.00,SE,135,9.0,11.0,60,0.00,,,0.00,,2013-05-13 13:11:00,
2013-05-13 13:21:00,46.0,34.0,-100.00,SE,140,8.0,11.0,59,0.00,,,0.00,,2013-05-13 13:21:00,
2013-05-13 13:31:00,47.0,34.0,-100.00,SE,140,11.0,13.0,58,0.00,,,0.00,,2013-05-13 13:31:00,
2013-05-13 13:41:00,48.0,34.0,-100.00,SSE,150,10.0,14.0,57,0.00,,,0.00,,2013-05-13 13:41:00,
2013-05-13 13:52:00,49.0,34.0,-100.00,SE,145,13.0,15.0,55,0.00,,,0.00,,2013-05-13 13:52:00,
2013-05-13 14:02:00,49.0,34.0,-100.00,SE,145,12.0,15.0,54,0.00,,,0.00,,2013-05-13 14:02:00,
2013-05-13 14:11:00,50.0,34.0,-100.00,SE,145,12.0,15.0,53,0.00,,,0.00,,2013-05-13 14:11:00,
2013-05-13 14:22:00,51.0,34.0,-100.00,SSE,150,12.0,17.0,50,0.00,,,0.00,,2013-05-13 14:22:00,
2013-05-13 14:31:00,52.0,34.0,-100.00,SSE,160,10.0,15.0,49,0.00,,,0.00,,2013-05-13 14:31:00,
2013-05-13 14:41:00,53.0,34.0,-100.00,SSE,165,12.0,16.0,47,0.00,,,0.00,,2013-05-13 14:41:00,
2013-05-13 14:51:00,53.0,34.0,-100.00,SSE,160,12.0,16.0,46,0.00,,,0.00,,2013-05-13 14:51:00,
2013-05-13 15:01:00,53.0,34.0,-100.00,SSE,150,14.0,19.0,47,0.00,,,0.00,,2013-05-13 15:01:00,
2013-05-13 15:11:00,54.0,34.0,-100.00,SE,145,13.0,17.0,48,0.00,,,0.00,,2013-05-13 15:11:00,
2013-05-13 15:21:00,55.0,36.0,-100.00,SSE,155,14.0,19.0,47,0.00,,,0.00,,2013-05-13 15:21:00,
2013-05-13 15:31:00,56.0,36.0,-100.00,SSE,155,13.0,21.0,45,0.00,,,0.00,,2013-05-13 15:31:00,
2013-05-13 15:42:00,57.0,36.0,-100.00,SSE,165,14.0,18.0,44,0.00,,,0.00,,2013-05-13 15:42:00,
2013-05-13 15:52:00,58.0,36.0,-100.00,South,170,16.0,22.0,43,0.00,,,0.00,,2013-05-13 15:52:00,
2013-05-13 16:03:00,58.0,36.0,-100.00,SSE,160,14.0,20.0,42,0.00,,,0.00,,2013-05-13 16:03:00,
2013-05-13 16:11:00,58.0,36.0,-100.00,SSE,160,14.0,20.0,42,0.00,,,0.00,,2013-05-13 16:11:00,
2013-05-13 16:21:00,59.0,36.0,-100.00,SSE,165,21.0,25.0,42,0.00,,,0.00,,2013-05-13 16:21:00,
2013-05-13 16:33:00,59.0,36.0,-100.00,SSE,165,24.0,29.0,41,0.00,,,0.00,,2013-05-13 16:33:00,
2013-05-13 16:42:00,61.0,37.0,-100.00,SSE,160,20.0,29.0,41,0.00,,,0.00,,2013-05-13 16:42:00,
2013-05-13 16:52:00,60.0,37.0,-100.00,SSE,160,21.0,29.0,40,0.00,,,0.00,,2013-05-13 16:52:00,
2013-05-13 17:02:00,61.0,37.0,-100.00,SSE,165,22.0,29.0,40,0.00,,,0.00,,2013-05-13 17:02:00,
2013-05-13 17:12:00,61.0,37.0,-100.00,SSE,165,22.0,29.0,40,0.00,,,0.00,,2013-05-13 17:12:00,
2013-05-13 17:21:00,63.0,39.0,-100.00,South,170,21.0,29.0,41,0.00,,,0.00,,2013-05-13 17:21:00,
2013-05-13 17:32:00,63.0,39.0,-100.00,South,170,22.0,29.0,41,0.00,,,0.00,,2013-05-13 17:32:00,
2013-05-13 17:42:00,64.0,39.0,-100.00,SSE,160,22.0,30.0,40,0.00,,,0.00,,2013-05-13 17:42:00,
2013-05-13 17:54:00,65.0,41.0,-100.00,SSE,165,21.0,26.0,40,0.00,,,0.00,,2013-05-13 17:54:00,
2013-05-13 18:03:00,65.0,41.0,-100.00,SE,145,22.0,29.0,40,0.00,,,0.00,,2013-05-13 18:03:00,
2013-05-13 18:12:00,66.0,41.0,-100.00,South,175,23.0,29.0,40,0.00,,,0.00,,2013-05-13 18:12:00,
2013-05-13 18:23:00,67.0,43.0,-100.00,SSE,165,24.0,31.0,40,0.00,,,0.00,,2013-05-13 18:23:00,
2013-05-13 18:32:00,68.0,43.0,-100.00,SSE,150,26.0,32.0,39,0.00,,,0.00,,2013-05-13 18:32:00,
2013-05-13 18:42:00,69.0,43.0,-100.00,SSE,155,22.0,29.0,39,0.00,,,0.00,,2013-05-13 18:42:00,
2013-05-13 18:51:00,69.0,43.0,-100.00,SSE,150,21.0,32.0,39,0.00,,,0.00,,2013-05-13 18:51:00,
2013-05-13 19:01:00,69.0,43.0,-100.00,SSE,160,22.0,31.0,39,0.00,,,0.00,,2013-05-13 19:01:00,
2013-05-13 19:11:00,71.0,45.0,-100.00,South,175,19.0,30.0,40,0.00,,,0.00,,2013-05-13 19:11:00,
2013-05-13 19:21:00,70.0,46.0,-100.00,South,175,26.0,34.0,41,0.00,,,0.00,,2013-05-13 19:21:00,
2013-05-13 19:32:00,71.0,46.0,-100.00,SSE,165,24.0,34.0,41,0.00,,,0.00,,2013-05-13 19:32:00,
2013-05-13 19:43:00,72.0,48.0,-100.00,South,180,26.0,32.0,41,0.00,,,0.00,,2013-05-13 19:43:00,
2013-05-13 19:53:00,73.0,48.0,-100.00,South,185,23.0,29.0,41,0.00,,,0.00,,2013-05-13 19:53:00,
2013-05-13 20:01:00,74.0,50.0,-100.00,SSW,195,24.0,30.0,41,0.00,,,0.00,,2013-05-13 20:01:00,
2013-05-13 20:11:00,75.0,50.0,-100.00,South,180,24.0,31.0,41,0.00,,,0.00,,2013-05-13 20:11:00,
2013-05-13 20:23:00,77.0,52.0,-100.00,SSW,195,21.0,34.0,41,0.00,,,0.00,,2013-05-13 20:23:00,
2013-05-13 20:33:00,76.0,52.0,-100.00,South,170,26.0,31.0,41,0.00,,,0.00,,2013-05-13 20:33:00,
2013-05-13 20:44:00,77.0,52.0,-100.00,South,190,25.0,30.0,40,0.00,,,0.00,,2013-05-13 20:44:00,
2013-05-13 20:53:00,78.0,52.0,-100.00,South,190,20.0,32.0,40,0.00,,,0.00,,2013-05-13 20:53:00,
2013-05-13 21:03:00,77.0,52.0,-100.00,South,180,27.0,34.0,39,0.00,,,0.00,,2013-05-13 21:03:00,
2013-05-13 21:14:00,79.0,52.0,-100.00,South,180,24.0,34.0,39,0.00,,,0.00,,2013-05-13 21:14:00,
2013-05-13 21:23:00,79.0,52.0,-100.00,South,180,24.0,32.0,39,0.00,,,0.00,,2013-05-13 21:23:00,
2013-05-13 21:33:00,81.0,54.0,-100.00,SSW,205,20.0,28.0,38,0.00,,,0.00,,2013-05-13 21:33:00,
2013-05-13 21:43:00,80.0,52.0,-100.00,South,180,22.0,30.0,38,0.00,,,0.00,,2013-05-13 21:43:00,
2013-05-13 21:53:00,82.0,54.0,-100.00,SSW,205,18.0,27.0,37,0.00,,,0.00,,2013-05-13 21:53:00,
2013-05-13 22:02:00,83.0,54.0,-100.00,SW,215,21.0,29.0,36,0.00,,,0.00,,2013-05-13 22:02:00,
2013-05-13 22:12:00,82.0,54.0,-100.00,SSW,195,21.0,27.0,36,0.00,,,0.00,,2013-05-13 22:12:00,
2013-05-13 22:23:00,84.0,54.0,-100.00,SSW,210,18.0,29.0,36,0.00,,,0.00,,2013-05-13 22:23:00,
2013-05-13 22:32:00,83.0,54.0,-100.00,SW,225,23.0,30.0,36,0.00,,,0.00,,2013-05-13 22:32:00,
2013-05-13 22:42:00,83.0,54.0,-100.00,WSW,245,21.0,26.0,36,0.00,,,0.00,,2013-05-13 22:42:00,
2013-05-13 22:52:00,83.0,54.0,-100.00,SW,225,17.0,24.0,36,0.00,,,0.00,,2013-05-13 22:52:00,
2013-05-13 23:02:00,83.0,54.0,-100.00,SW,235,12.0,19.0,36,0.00,,,0.00,,2013-05-13 23:02:00,
2013-05-13 23:12:00,83.0,54.0,-100.00,SW,215,12.0,17.0,36,0.00,,,0.00,,2013-05-13 23:12:00,
2013-05-13 23:23:00,83.0,54.0,-100.00,SSW,210,12.0,16.0,36,0.00,,,0.00,,2013-05-13 23:23:00,
2013-05-13 23:33:00,82.0,54.0,-100.00,SW,235,12.0,17.0,36,0.00,,,0.00,,2013-05-13 23:33:00,
2013-05-13 23:42:00,83.0,54.0,-100.00,SW,220,11.0,13.0,37,0.00,,,0.00,,2013-05-13 23:42:00,
2013-05-13 23:53:00,83.0,54.0,-100.00,SW,230,10.0,13.0,37,0.00,,,0.00,,2013-05-13 23:53:00,